080  
ASUS46 KPQR 170110  
RWROR  
 
OREGON REGIONAL WEATHER ROUNDUP  
NATIONAL WEATHER SERVICE PORTLAND OR  
600 PM PDT MON OCT 16 2017  
 
NOTE: "FAIR" INDICATES FEW OR NO CLOUDS BELOW 12,000 FEET WITH  
NO SIGNIFICANT WEATHER AND/OR S TO VISIBILITY
.  
 
ORZ001>013-170200-  
NORTHWEST OREGON  
 
 
CITY SKY/WX TMP DP RH WIND PRES REMARKS
 
ASTORIA CLEAR 56 46 69 W3 30.17F  
NEWPORT CLEAR 54 50 87 N12 30.20F  
PORTLAND PTCLDY 65 47 52 CALM 30.15F  
VANCOUVER WA CLEAR 63 50 62 W3 30.14F  
SCAPPOOSE CLEAR 62 48 60 CALM 30.15F  
HILLSBORO CLEAR 64 50 60 NE3 30.14F  
AURORA CLEAR 64 48 56 CALM 30.16F  
MCMINNVILLE CLEAR 62 51 67 E3 30.15F  
SALEM CLEAR 65 48 54 NE5 30.13F  
CORVALLIS CLEAR 63 50 62 E3 30.15F  
EUGENE PTCLDY 63 51 65 NE3 30.14F  

 
 
ORZ021-028-170200-  
SOUTHWEST OREGON  
 
 
CITY SKY/WX TMP DP RH WIND PRES REMARKS
 
NORTH BEND PTCLDY 55 49 80 N17 30.17F  
BROOKINGS PTCLDY 65 40 39 S3 30.10F  
ROSEBURG CLEAR 71 46 40 N5 30.12F  
SEXTON SUMMIT PTCLDY 64 17 16 N5 30.22F  
GRANTS PASS FAIR 70 34 26 CALM 30.15F  
MEDFORD MOCLDY 74 28 18 CALM 30.11F  

 
 
ORZ014>016-041-170200-  
COLUMBIA GORGE  
 
 
CITY SKY/WX TMP DP RH WIND PRES REMARKS
 
TROUTDALE CLEAR 64 47 53 CALM 30.14F  
HOOD RIVER CLEAR 63 39 42 CALM 30.12F  
THE DALLES CLEAR 66 42 41 NW6 30.10F  

 
 
ORZ029>031-041-044-049-050-061>064-502-503-505>511-170200-  
EASTERN OREGON  
 
 
CITY SKY/WX TMP DP RH WIND PRES REMARKS
 
MADRAS CLEAR 64 61 88 N3 30.16F  
REDMOND CLEAR 68 27 21 CALM 30.17F  
BEND CLEAR 70 28 21 N5 30.19S  
PRINEVILLE CLEAR 66 32 28 N3 30.18F  
KLAMATH FALLS MOCLDY 68 31 25 CALM 30.22F  
LAKEVIEW CLEAR 63 21 20 S7 30.25F  
HERMISTON CLEAR 62 38 40 S7 30.08F  
PENDLETON CLEAR 67 32 27 N3 30.11F HAZE  
JOHN DAY CLEAR 64 32 29 SW3 30.21S  
MEACHAM CLEAR 57 30 35 CALM 30.20F  
LA GRANDE PTCLDY 61 26 26 S16G24 30.20S  
BAKER CITY PTCLDY 56 24 29 E8 30.24F  
BURNS CLEAR 59 29 31 N3 30.25F  
ROME N/A 64 23 21 NE7 30.24F  
ONTARIO NOT AVBL  

 
 
 
CLICK HERE TO GO TO PREVIOUS BULLETINS.

The Nexlab OR Page Main Text Page